Pittsfield, IL

1:51 PM CDT on July 27, 2017 (GMT -0500)
Pittsfield Penstone Municipal

Weather History for KPPQ - January, 2011

Change the Weather History Date:

Saturday, January 1, 2011

  Actual Average (KUIN) Record (KUIN)
Temperature  
Mean Temperature 27 °F -  
Max Temperature 33 °F 32 °F 60 °F (1905)
Min Temperature 21 °F 16 °F -13 °F (1974)
Degree Days  
Heating Degree Days 38    
Moisture  
Dew Point 11 °F    
Average Humidity 53    
Maximum Humidity 69    
Minimum Humidity 43    
Precipitation  
Precipitation 0.00 in - - ()
Sea Level Pressure  
Sea Level Pressure 30.02 in    
Wind  
Wind Speed 15 mph (WSW)    
Max Wind Speed 23 mph    
Max Gust Speed 29 mph    
Visibility 10 miles    
Events      
Averages and records for this station are not official NWS values.
T = Trace of Precipitation, MM = Missing Value Source: NWS Daily Summary

Daily Weather History Graph

Daily Weather History Graph

Search for Another Location

Airport or City:

Trip Planner

Search our weather history database for the weather conditions in past years. The results will help you decide how hot, cold, wet, or windy it might be!

Date:

Astronomy

Jan. 01, 2011 Rise Set
Actual Time 7:23 AM CST 4:49 PM CST
Civil Twilight 6:53 AM CST 5:19 PM CST
Nautical Twilight 6:19 AM CST 5:53 PM CST
Astronomical Twilight 5:47 AM CST 6:26 PM CST
Moon 4:57 AM CST (1/1) 2:26 PM CST (1/1)
Length of Visible Light 10h 26m
Length of Day
9h 25m
Waning Crescent, 7% of the Moon is Illuminated
Jan 1
Waning Crescent
Jan 4
New
Jan 12
First Quarter
Jan 19
Full
Jan 26
Last Quarter

Hourly Weather History & Observations

Time (CST) Temp. Windchill Dew Point Humidity Pressure Visibility Wind Dir Wind Speed Gust Speed Precip Events Conditions
12:07 AM 33.8 °F 23.2 °F 23.0 °F 65% 29.89 in 10.0 mi WSW 17.3 mph 23.0 mph N/A   Clear
12:27 AM 33.8 °F 24.3 °F 23.0 °F 65% 29.90 in 10.0 mi WSW 13.8 mph 17.3 mph N/A   Clear
12:47 AM 32.0 °F 21.2 °F 21.2 °F 64% 29.88 in 10.0 mi West 16.1 mph 20.7 mph N/A   Scattered Clouds
1:07 AM 30.2 °F 19.8 °F 19.4 °F 64% 29.89 in 10.0 mi WSW 13.8 mph 19.6 mph N/A   Scattered Clouds
1:27 AM 30.2 °F 20.2 °F 19.4 °F 64% 29.90 in 10.0 mi WSW 12.7 mph 19.6 mph N/A   Clear
1:48 AM 30.2 °F 20.2 °F 19.4 °F 64% 29.90 in 10.0 mi West 12.7 mph 17.3 mph N/A   Clear
2:07 AM 30.2 °F 21.9 °F 19.4 °F 64% 29.90 in 10.0 mi West 9.2 mph 16.1 mph N/A   Clear
2:27 AM 28.4 °F 18.5 °F 19.4 °F 69% 29.89 in 10.0 mi West 11.5 mph 20.7 mph N/A   Clear
2:47 AM 28.4 °F 18.5 °F 19.4 °F 69% 29.91 in 10.0 mi WSW 11.5 mph - N/A   Clear
3:07 AM 28.4 °F 18.5 °F 19.4 °F 69% 29.92 in 10.0 mi WSW 11.5 mph 16.1 mph N/A   Scattered Clouds
3:27 AM 28.4 °F 17.0 °F 15.8 °F 59% 29.92 in 10.0 mi WSW 15.0 mph 19.6 mph N/A   Scattered Clouds
3:47 AM 26.6 °F 16.2 °F 15.8 °F 64% 29.94 in 10.0 mi West 11.5 mph 20.7 mph N/A   Clear
4:07 AM 24.8 °F 11.9 °F 12.2 °F 59% 29.94 in 10.0 mi WSW 16.1 mph 24.2 mph N/A   Clear
4:27 AM 24.8 °F 12.9 °F 8.6 °F 50% 29.94 in 10.0 mi West 13.8 mph - N/A   Clear
4:47 AM 24.8 °F 12.9 °F 10.4 °F 54% 29.96 in 10.0 mi WSW 13.8 mph 18.4 mph N/A   Clear
5:07 AM 24.8 °F 12.9 °F 10.4 °F 54% 29.96 in 10.0 mi WSW 13.8 mph 19.6 mph N/A   Scattered Clouds
5:27 AM 23.0 °F 13.9 °F 10.4 °F 59% 29.98 in 10.0 mi WSW 8.1 mph 16.1 mph N/A   Scattered Clouds
5:47 AM 23.0 °F 9.2 °F 8.6 °F 54% 29.98 in 10.0 mi WSW 17.3 mph 23.0 mph N/A   Mostly Cloudy
6:07 AM 23.0 °F 10.6 °F 6.8 °F 50% 29.98 in 10.0 mi West 13.8 mph 20.7 mph N/A   Overcast
6:27 AM 21.2 °F 8.3 °F 6.8 °F 54% 29.99 in 10.0 mi West 13.8 mph - N/A   Overcast
6:47 AM 23.0 °F 12.4 °F 8.6 °F 54% 30.00 in 10.0 mi WSW 10.4 mph 17.3 mph N/A   Overcast
7:07 AM 23.0 °F 10.6 °F 10.4 °F 59% 30.01 in 10.0 mi WSW 13.8 mph 19.6 mph N/A   Overcast
7:27 AM 23.0 °F 10.1 °F 8.6 °F 54% 30.02 in 10.0 mi WSW 15.0 mph 21.9 mph N/A   Overcast
7:47 AM 21.2 °F 6.8 °F 6.8 °F 54% 30.02 in 10.0 mi WSW 17.3 mph 21.9 mph N/A   Overcast
8:07 AM 21.2 °F 6.4 °F 6.8 °F 54% 30.04 in 10.0 mi WSW 18.4 mph 21.9 mph N/A   Mostly Cloudy
8:27 AM 21.2 °F 8.3 °F 6.8 °F 54% 30.04 in 10.0 mi WSW 13.8 mph - N/A   Clear
8:47 AM 23.0 °F 8.7 °F 6.8 °F 50% 30.05 in 10.0 mi WSW 18.4 mph 25.3 mph N/A   Clear
9:08 AM 23.0 °F 9.6 °F 6.8 °F 50% 30.06 in 10.0 mi West 16.1 mph 23.0 mph N/A   Clear
9:27 AM 23.0 °F 10.1 °F 6.8 °F 50% 30.07 in 10.0 mi WSW 15.0 mph 19.6 mph N/A   Clear
9:47 AM 23.0 °F 9.2 °F 6.8 °F 50% 30.07 in 10.0 mi WSW 17.3 mph 23.0 mph N/A   Clear
10:08 AM 23.0 °F 10.1 °F 6.8 °F 50% 30.08 in 10.0 mi WSW 15.0 mph 20.7 mph N/A   Clear
10:27 AM 24.8 °F 12.4 °F 6.8 °F 46% 30.09 in 10.0 mi WSW 15.0 mph 19.6 mph N/A   Clear
10:47 AM 24.8 °F 11.1 °F 8.6 °F 50% 30.08 in 10.0 mi WSW 18.4 mph 21.9 mph N/A   Clear
11:07 AM 24.8 °F 10.3 °F 6.8 °F 46% 30.08 in 10.0 mi WSW 20.7 mph 26.5 mph N/A   Clear
11:27 AM 26.6 °F 13.1 °F 8.6 °F 47% 30.07 in 10.0 mi WSW 19.6 mph 25.3 mph N/A   Clear
11:47 AM 26.6 °F 13.8 °F 8.6 °F 47% 30.06 in 10.0 mi WSW 17.3 mph 25.3 mph N/A   Clear
12:07 PM 26.6 °F 13.8 °F 10.4 °F 51% 30.05 in 10.0 mi WSW 17.3 mph 28.8 mph N/A   Clear
12:27 PM 26.6 °F 13.1 °F 10.4 °F 51% 30.05 in 10.0 mi WSW 19.6 mph 27.6 mph N/A   Clear
12:47 PM 28.4 °F 14.4 °F 10.4 °F 47% 30.05 in 10.0 mi WSW 23.0 mph 27.6 mph N/A   Clear
1:07 PM 28.4 °F 15.8 °F 10.4 °F 47% 30.05 in 10.0 mi WSW 18.4 mph 27.6 mph N/A   Clear
1:27 PM 28.4 °F 15.1 °F 10.4 °F 47% 30.06 in 10.0 mi West 20.7 mph 27.6 mph N/A   Clear
1:47 PM 28.4 °F 14.7 °F 10.4 °F 47% 30.05 in 10.0 mi West 21.9 mph 28.8 mph N/A   Scattered Clouds
2:07 PM 28.4 °F 15.8 °F 10.4 °F 47% 30.06 in 10.0 mi WSW 18.4 mph 27.6 mph N/A   Scattered Clouds
2:27 PM 28.4 °F 15.1 °F 10.4 °F 47% 30.06 in 10.0 mi WSW 20.7 mph 26.5 mph N/A   Scattered Clouds
2:47 PM 28.4 °F 17.0 °F 10.4 °F 47% 30.07 in 10.0 mi WSW 15.0 mph 24.2 mph N/A   Clear
3:07 PM 28.4 °F 16.6 °F 10.4 °F 47% 30.08 in 10.0 mi WSW 16.1 mph 25.3 mph N/A   Scattered Clouds
3:28 PM 30.2 °F 18.9 °F 10.4 °F 44% 30.09 in 10.0 mi West 16.1 mph 20.7 mph N/A   Scattered Clouds
3:47 PM 28.4 °F 18.0 °F 10.4 °F 47% 30.11 in 10.0 mi West 12.7 mph 21.9 mph N/A   Clear
4:07 PM 28.4 °F 15.4 °F 8.6 °F 43% 30.11 in 10.0 mi West 19.6 mph 26.5 mph N/A   Clear
4:28 PM 28.4 °F 17.5 °F 10.4 °F 47% 30.12 in 10.0 mi West 13.8 mph 23.0 mph N/A   Clear
4:48 PM 28.4 °F 18.5 °F 10.4 °F 47% 30.13 in 10.0 mi West 11.5 mph 18.4 mph N/A   Clear
5:08 PM 28.4 °F 19.1 °F 10.4 °F 47% 30.13 in 10.0 mi WSW 10.4 mph 18.4 mph N/A   Clear
5:28 PM 28.4 °F 19.1 °F 10.4 °F 47% 30.14 in 10.0 mi West 10.4 mph 17.3 mph N/A   Clear
5:48 PM 28.4 °F 19.1 °F 10.4 °F 47% 30.15 in 10.0 mi West 10.4 mph - N/A   Clear
6:08 PM 26.6 °F 16.2 °F 10.4 °F 51% 30.16 in 10.0 mi West 11.5 mph 18.4 mph N/A   Clear
6:27 PM 26.6 °F 17.5 °F 12.2 °F 55% 30.16 in 10.0 mi West 9.2 mph - N/A   Clear
6:47 PM 26.6 °F 15.7 °F 12.2 °F 55% 30.18 in 10.0 mi West 12.7 mph - N/A   Clear
7:07 PM 26.6 °F 16.8 °F 12.2 °F 55% 30.18 in 10.0 mi West 10.4 mph - N/A   Clear
7:27 PM 26.6 °F 18.2 °F 10.4 °F 51% 30.18 in 10.0 mi West 8.1 mph - N/A   Clear
7:47 PM 26.6 °F 18.2 °F 10.4 °F 51% 30.20 in 10.0 mi West 8.1 mph - N/A   Clear
8:07 PM 26.6 °F 19.1 °F 12.2 °F 55% 30.21 in 10.0 mi West 6.9 mph - N/A   Clear
8:27 PM 24.8 °F 17.9 °F 12.2 °F 59% 30.21 in 10.0 mi WSW 5.8 mph - N/A   Clear
8:47 PM 24.8 °F 15.3 °F 12.2 °F 59% 30.23 in 10.0 mi WSW 9.2 mph - N/A   Clear
9:07 PM 24.8 °F 16.9 °F 12.2 °F 59% 30.22 in 10.0 mi WSW 6.9 mph - N/A   Clear
9:27 PM 24.8 °F 16.9 °F 12.2 °F 59% 30.22 in 10.0 mi West 6.9 mph - N/A   Clear
9:47 PM 24.8 °F 16.9 °F 12.2 °F 59% 30.21 in 10.0 mi WNW 6.9 mph - N/A   Clear
10:07 PM 24.8 °F 14.6 °F 12.2 °F 59% 30.21 in 10.0 mi West 10.4 mph 16.1 mph N/A   Clear
10:27 PM 24.8 °F 16.1 °F 12.2 °F 59% 30.22 in 10.0 mi West 8.1 mph - N/A   Clear
10:47 PM 24.8 °F 19.1 °F 12.2 °F 59% 30.23 in 10.0 mi West 4.6 mph - N/A   Clear
11:07 PM 24.8 °F 17.9 °F 12.2 °F 59% 30.23 in 10.0 mi West 5.8 mph - N/A   Clear
11:27 PM 23.0 °F 15.8 °F 12.2 °F 63% 30.25 in 10.0 mi West 5.8 mph - N/A   Clear
11:48 PM 23.0 °F 17.0 °F 10.4 °F 59% 30.24 in 10.0 mi West 4.6 mph - N/A   Clear